map of MXJ home
Great Circle Mapper logo
MXJ - Airport
Location
City:  Minna, Niger, Nigeria
Name:Minna Airport
ICAO:DNMN
IATA:MXJ

Details
Type:Airport (Aerodrome, Airfield)
Use:Public/Civil
Latitude:939'08"N (9.652172)
Longitude:627'44"E (6.462256)
Datum:WGS 1984
Elevation:834 ft (254 m)
Variation:1.03W (WMM2015 magnetic declination)
0.10 annual change
Runways:1
Longest:11153 × 145 ft (3399 × 44 m), paved

Time
Time Zone:UTC+1
Local Time:

Weather
METAR:DNMN 290800Z 30009KT 9999 DZ BKN009 25/24 Q1013
TAF:DNMN 290350Z 2906/3012 12003KT 9999 FEW008 PROB30
BECMG 2908/2910 23010KT BKN012
TEMPO 2916/2921 09014G28KT 5000-TSRA BKN008 FEW019CB
BECMG 14005KT FEW007

Related Locations
Nearby:
Farthest:AAU: 12159 mi / 19568 km
Asau, WS

Find:

   beyond  
but within

Other Information
Maps:
NOTAMs:
Links:
Sources:

  
flag of Nigeria   

Sectional Chart

Flight Planning
at skyvector.com

Satellite Image

Google Maps Satellite view

 

Copyright © 2004-2016 Karl L. Swartz. All rights reserved.
The Great Circle Mapper name and logo are trademarks of the Great Circle Mapper.
All other trademarks mentioned herein belong to their respective owners.
Please see credits for attibutions and further copyright information.

  Follow gcmap on Facebook Follow gcmap on Twitter Follow gcmap on Google+ GCmap on LinkedIn

hCard Microformat

Geo Microformat